Overview Statistics Trail Chart Weather Telemetry Raw packets
 

This is the latest recevied weather packets stored in our database for station/object N4DWK. If no packets are shown the sender has not sent any weather packets the latest 10 day(s).

<< 22 23 24 25 26 27 28 >>
Time Temp. Humidity Pressure Rain* Wind** Luminosity Snow
1788462905 36.67° C 58% 1014.9 hPa 0 mm - 552 W/m² -
1788462604 36.67° C 60% 1015 hPa 0 mm - 531 W/m² -
1788462305 36.67° C 61% 1015.1 hPa 0 mm - 123 W/m² -
1788462004 36.11° C 60% 1015.1 hPa 0 mm - 506 W/m² -
1788461705 36.67° C 57% 1015.3 hPa 0 mm - 480 W/m² -
1788461405 36.67° C 59% 1015.3 hPa 0 mm - 543 W/m² -
1788461104 36.11° C 58% 1015.4 hPa 0 mm - 561 W/m² -
1788460805 36.11° C 60% 1015.4 hPa 0 mm - 555 W/m² -
1788460504 36.67° C 60% 1015.5 hPa 0 mm - 552 W/m² -
1788460204 37.22° C 59% 1015.6 hPa 0 mm - 543 W/m² -
1788459904 36.11° C 61% 1015.6 hPa 0 mm - 533 W/m² -
1788459605 36.11° C 61% 1015.7 hPa 0 mm - 548 W/m² -
1788459304 36.11° C 62% 1015.8 hPa 0 mm - 555 W/m² -
1788459004 35.56° C 63% 1015.8 hPa 0 mm - 554 W/m² -
1788458704 36.11° C 63% 1015.9 hPa 0 mm - 555 W/m² -
1788458404 35° C 65% 1016.1 hPa 0 mm - 564 W/m² -
1788458104 35.56° C 63% 1016.2 hPa 0 mm - 487 W/m² -
1788457805 35.56° C 61% 1016.1 hPa 0 mm - 552 W/m² -
1788457504 35.56° C 62% 1016.1 hPa 0 mm - 564 W/m² -
1788457205 35.56° C 63% 1016.1 hPa 0 mm - 570 W/m² -
1788456904 35° C 65% 1016.1 hPa 0 mm - 564 W/m² -
1788456605 33.89° C 67% 1016.2 hPa 0 mm - 564 W/m² -
1788456304 33.89° C 67% 1016.3 hPa 0 mm - 563 W/m² -
1788456004 33.89° C 68% 1016.3 hPa 0 mm - 561 W/m² -
1788455705 33.89° C 68% 1016.3 hPa 0 mm - 559 W/m² -

* Rain latest hour (hover to see other rain measurements)
** Current wind speed in m/s (hover to see current wind gust speed)